• In Österreich
  • Länderverzeichnis
  • Für 7 Tage
  • Wassertemperatur
  • Satellitenkarten
  • Wetterkarte
  • News
  • Widgets
  • user-avatar
    Anmelden

    Stündliche Wetter Wien

    Heute, 18 Oktober, Donnerstag

    Zeit Temperatur Niederschläge Wind Luftdruck Luftfeuchtigkeit
    00:00 +15°C° 0 mm 1 m/S 746 mmHg 62%
    01:00 +15°C° 0 mm 1 m/S 746 mmHg 63%
    02:00 +14°C° 0 mm 1 m/S 746 mmHg 64%
    03:00 +14°C° 0 mm 1 m/S 745 mmHg 66%
    04:00 +13°C° 0 mm 1 m/S 745 mmHg 67%
    05:00 +13°C° 0.1 mm 1 m/S 745 mmHg 68%
    06:00 +13°C° 0.1 mm 1 m/S 745 mmHg 68%
    07:00 +13°C° 0 mm 1 m/S 746 mmHg 67%
    08:00 +15°C° 0 mm 1 m/S 745 mmHg 63%
    09:00 +16°C° 0 mm 1 m/S 745 mmHg 58%
    10:00 +18°C° 0 mm 1 m/S 745 mmHg 53%
    11:00 +19°C° 0 mm 1 m/S 745 mmHg 51%
    12:00 +20°C° 0 mm 1 m/S 745 mmHg 49%
    13:00 +21°C° 0 mm 1 m/S 745 mmHg 46%
    14:00 +21°C° 0 mm 1 m/S 745 mmHg 48%
    15:00 +20°C° 0 mm 1 m/S 745 mmHg 50%
    16:00 +20°C° 0 mm 1 m/S 744 mmHg 52%
    17:00 +18°C° 0 mm 1 m/S 745 mmHg 56%
    18:00 +16°C° 0 mm 1 m/S 745 mmHg 59%
    19:00 +13°C° 0 mm 0 m/S 745 mmHg 63%
    20:00 +14°C° 0 mm 1 m/S 745 mmHg 65%
    21:00 +14°C° 0 mm 1 m/S 746 mmHg 67%
    22:00 +14°C° 0 mm 1 m/S 746 mmHg 69%
    23:00 +13°C° 0 mm 1 m/S 746 mmHg 72%

    Morgen, 19 Oktober, Freitag

    Zeit Temperatur Niederschläge Wind Luftdruck Luftfeuchtigkeit
    00:00 +13°C° 0 mm 1 m/S 746 mmHg 75%
    01:00 +12°C° 0 mm 1 m/S 746 mmHg 77%
    02:00 +12°C° 0 mm 2 m/S 746 mmHg 79%
    03:00 +12°C° 0 mm 2 m/S 746 mmHg 81%
    04:00 +10°C° 0 mm 2 m/S 746 mmHg 83%
    05:00 +10°C° 0 mm 2 m/S 746 mmHg 83%
    06:00 +10°C° 0 mm 2 m/S 747 mmHg 83%
    07:00 +10°C° 0 mm 2 m/S 747 mmHg 84%
    08:00 +13°C° 0 mm 2 m/S 747 mmHg 76%
    09:00 +14°C° 0 mm 3 m/S 747 mmHg 68%
    10:00 +17°C° 0 mm 3 m/S 747 mmHg 60%
    11:00 +18°C° 0 mm 3 m/S 747 mmHg 56%
    12:00 +19°C° 0 mm 3 m/S 747 mmHg 53%
    13:00 +20°C° 0 mm 3 m/S 747 mmHg 50%
    14:00 +20°C° 0 mm 3 m/S 747 mmHg 52%
    15:00 +19°C° 0 mm 2 m/S 747 mmHg 54%
    16:00 +19°C° 0 mm 2 m/S 747 mmHg 57%
    17:00 +17°C° 0 mm 2 m/S 747 mmHg 62%
    18:00 +16°C° 0 mm 2 m/S 748 mmHg 68%
    19:00 +14°C° 0 mm 2 m/S 748 mmHg 73%
    20:00 +14°C° 0 mm 2 m/S 748 mmHg 76%
    21:00 +13°C° 0 mm 2 m/S 749 mmHg 80%
    22:00 +13°C° 0 mm 2 m/S 749 mmHg 83%
    23:00 +12°C° 0 mm 2 m/S 749 mmHg 85%

    übermorgen, 20 Oktober, Samstag

    Zeit Temperatur Niederschläge Wind Luftdruck Luftfeuchtigkeit
    00:00 +12°C° 0 mm 2 m/S 749 mmHg 87%
    01:00 +10°C° 0 mm 2 m/S 749 mmHg 89%
    02:00 +10°C° 0 mm 2 m/S 749 mmHg 90%
    03:00 +10°C° 0 mm 2 m/S 750 mmHg 91%
    04:00 +10°C° 0 mm 2 m/S 750 mmHg 92%
    05:00 +10°C° 0 mm 2 m/S 750 mmHg 92%
    06:00 +10°C° 0 mm 2 m/S 750 mmHg 91%
    07:00 +10°C° 0 mm 2 m/S 750 mmHg 91%
    08:00 +11°C° 0 mm 3 m/S 751 mmHg 83%
    09:00 +13°C° 0 mm 3 m/S 751 mmHg 74%
    10:00 +16°C° 0 mm 3 m/S 751 mmHg 66%
    11:00 +17°C° 0 mm 3 m/S 751 mmHg 62%
    12:00 +17°C° 0 mm 4 m/S 751 mmHg 59%
    13:00 +18°C° 0 mm 4 m/S 751 mmHg 55%
    14:00 +18°C° 0 mm 4 m/S 751 mmHg 56%
    15:00 +17°C° 0 mm 3 m/S 751 mmHg 57%
    16:00 +16°C° 0 mm 3 m/S 751 mmHg 59%
    17:00 +14°C° 0 mm 3 m/S 751 mmHg 63%
    18:00 +13°C° 0 mm 3 m/S 751 mmHg 68%
    19:00 +13°C° 0 mm 2 m/S 752 mmHg 72%
    20:00 +12°C° 0 mm 2 m/S 752 mmHg 74%
    21:00 +10°C° 0 mm 3 m/S 752 mmHg 76%
    22:00 +10°C° 0 mm 3 m/S 753 mmHg 79%
    23:00 +9°C° 0 mm 3 m/S 753 mmHg 79%

    21 Oktober, Sonntag

    Zeit Temperatur Niederschläge Wind Luftdruck Luftfeuchtigkeit
    00:00 +9°C° 0 mm 3 m/S 753 mmHg 79%
    01:00 +8°C° 0 mm 3 m/S 753 mmHg 80%
    02:00 +8°C° 0 mm 3 m/S 753 mmHg 80%
    03:00 +7°C° 0 mm 3 m/S 753 mmHg 80%
    04:00 +7°C° 0 mm 3 m/S 752 mmHg 80%
    05:00 +7°C° 0 mm 3 m/S 753 mmHg 80%
    06:00 +5°C° 0 mm 3 m/S 753 mmHg 79%
    07:00 +5°C° 0 mm 3 m/S 753 mmHg 78%
    08:00 +8°C° 0 mm 3 m/S 753 mmHg 69%
    09:00 +10°C° 0 mm 3 m/S 752 mmHg 60%
    10:00 +12°C° 0 mm 4 m/S 752 mmHg 52%
    11:00 +13°C° 0 mm 4 m/S 752 mmHg 49%
    12:00 +14°C° 0 mm 4 m/S 751 mmHg 45%
    13:00 +15°C° 0 mm 4 m/S 751 mmHg 42%
    14:00 +14°C° 0 mm 4 m/S 751 mmHg 45%
    15:00 +14°C° 0 mm 3 m/S 750 mmHg 47%
    16:00 +13°C° 0 mm 3 m/S 750 mmHg 50%
    17:00 +12°C° 0 mm 3 m/S 750 mmHg 55%
    18:00 +12°C° 0 mm 2 m/S 750 mmHg 60%
    19:00 +9°C° 0 mm 2 m/S 751 mmHg 64%
    20:00 +9°C° 0 mm 2 m/S 751 mmHg 67%
    21:00 +8°C° 0 mm 2 m/S 751 mmHg 70%
    22:00 +8°C° 0 mm 2 m/S 751 mmHg 73%
    23:00 +8°C° 0 mm 2 m/S 751 mmHg 75%

    22 Oktober, Montag

    Zeit Temperatur Niederschläge Wind Luftdruck Luftfeuchtigkeit
    00:00 +7°C° 0 mm 2 m/S 751 mmHg 77%
    01:00 +7°C° 0 mm 2 m/S 750 mmHg 79%
    02:00 +7°C° 0 mm 2 m/S 750 mmHg 80%
    03:00 +6°C° 0 mm 2 m/S 750 mmHg 81%
    04:00 +6°C° 0 mm 2 m/S 750 mmHg 83%
    05:00 +6°C° 0 mm 2 m/S 750 mmHg 81%
    06:00 +7°C° 0 mm 2 m/S 750 mmHg 80%
    07:00 +7°C° 0 mm 2 m/S 750 mmHg 79%
    08:00 +8°C° 0 mm 2 m/S 750 mmHg 74%
    09:00 +9°C° 0 mm 2 m/S 750 mmHg 69%
    10:00 +12°C° 0 mm 2 m/S 750 mmHg 64%
    11:00 +12°C° 0 mm 2 m/S 750 mmHg 63%
    12:00 +12°C° 0 mm 2 m/S 750 mmHg 62%
    13:00 +13°C° 0 mm 2 m/S 750 mmHg 60%
    14:00 +13°C° 0 mm 2 m/S 750 mmHg 62%
    15:00 +13°C° 0 mm 2 m/S 750 mmHg 63%
    16:00 +13°C° 0 mm 2 m/S 749 mmHg 64%
    17:00 +12°C° 0 mm 2 m/S 749 mmHg 68%
    18:00 +10°C° 0 mm 2 m/S 749 mmHg 72%
    19:00 +11°C° 0 mm 1 m/S 749 mmHg 76%
    20:00 +10°C° 0.1 mm 2 m/S 749 mmHg 76%
    21:00 +10°C° 0.1 mm 2 m/S 749 mmHg 77%
    22:00 +10°C° 0.1 mm 2 m/S 749 mmHg 78%
    23:00 +10°C° 0.2 mm 2 m/S 749 mmHg 79%

    23 Oktober, Dienstag

    Zeit Temperatur Niederschläge Wind Luftdruck Luftfeuchtigkeit
    00:00 +9°C° 0.2 mm 2 m/S 749 mmHg 80%
    01:00 +9°C° 0.2 mm 2 m/S 748 mmHg 80%
    02:00 +9°C° 0.2 mm 3 m/S 748 mmHg 81%
    03:00 +9°C° 0.2 mm 3 m/S 748 mmHg 82%
    04:00 +8°C° 0.2 mm 4 m/S 747 mmHg 83%
    05:00 +8°C° 0.1 mm 4 m/S 747 mmHg 84%
    06:00 +7°C° 0.1 mm 4 m/S 747 mmHg 84%
    07:00 +8°C° 0.1 mm 3 m/S 746 mmHg 84%
    08:00 +8°C° 0.1 mm 4 m/S 746 mmHg 80%
    09:00 +8°C° 0.1 mm 4 m/S 746 mmHg 75%
    10:00 +8°C° 0.1 mm 4 m/S 746 mmHg 70%
    11:00 +10°C° 0.1 mm 4 m/S 745 mmHg 67%
    12:00 +9°C° 0.1 mm 5 m/S 744 mmHg 64%
    13:00 +9°C° 0.1 mm 5 m/S 744 mmHg 61%
    14:00 +9°C° 0.1 mm 5 m/S 743 mmHg 62%
    15:00 +9°C° 0.1 mm 5 m/S 743 mmHg 63%
    16:00 +8°C° 0.1 mm 6 m/S 742 mmHg 63%
    17:00 +8°C° 0.2 mm 6 m/S 742 mmHg 67%
    18:00 +7°C° 0.2 mm 6 m/S 741 mmHg 70%
    19:00 +7°C° 0.2 mm 5 m/S 741 mmHg 73%
    20:00 +7°C° 0.9 mm 5 m/S 740 mmHg 75%
    21:00 +7°C° 0.9 mm 5 m/S 740 mmHg 77%
    22:00 +7°C° 0.9 mm 5 m/S 739 mmHg 79%
    23:00 +7°C° 0.3 mm 5 m/S 740 mmHg 79%
    Mehr zeigen